Location: 433rd Scouts Home(Lloyd Manor Park, Etobicoke )
(43.6722°N, 79.5542°W)
Time: 06:57:25
(UTC-04:00)

Envisat - Pass Details

Date: 20 September 2021
Orbit: 764 x 766 km, 98.2° (Epoch: 20 October)

Event Time Altitude Azimuth Distance (km) Brightness Sun altitude
Rises 06:23:38 0° 15° (NNE) 3,241 6.6 -8.0°
Reaches altitude 10° 06:25:57 10° 17° (NNE) 2,310 5.8 -7.6°
Maximum altitude 06:31:03 72° 102° (ESE) 805 3.4 -6.7°
Drops below altitude 10° 06:36:05 10° 187° (S) 2,293 5.3 -5.8°
Sets 06:38:23 0° 189° (S) 3,214 6.1 -5.4°
